TimeCST,TemperatureF,Dew PointF,Humidity,Sea Level PressureIn,VisibilityMPH,Wind Direction,Wind SpeedMPH,Gust SpeedMPH,PrecipitationIn,Events,Conditions,WindDirDegrees,DateUTC
12:15 AM,17.6,12.2,79,30.01,10.0,WNW,11.5,-,N/A,,Clear,300,2012-12-31 06:15:00
12:35 AM,17.6,12.2,79,30.01,10.0,WNW,12.7,-,N/A,,Clear,300,2012-12-31 06:35:00
12:55 AM,15.8,12.2,86,30.02,10.0,WNW,9.2,-,N/A,,Clear,300,2012-12-31 06:55:00
1:15 AM,15.8,10.4,79,30.03,10.0,WNW,9.2,-,N/A,,Clear,300,2012-12-31 07:15:00
1:35 AM,14.0,10.4,86,30.03,10.0,WNW,8.1,-,N/A,,Clear,300,2012-12-31 07:35:00
1:55 AM,15.8,10.4,79,30.05,10.0,NW,9.2,-,N/A,,Clear,320,2012-12-31 07:55:00
2:15 AM,15.8,10.4,79,30.05,10.0,NNW,11.5,-,N/A,,Mostly Cloudy,330,2012-12-31 08:15:00
2:35 AM,15.8,10.4,79,30.06,10.0,NNW,13.8,-,N/A,,Mostly Cloudy,330,2012-12-31 08:35:00
2:55 AM,15.8,10.4,79,30.08,10.0,NNW,12.7,-,N/A,,Overcast,330,2012-12-31 08:55:00
3:15 AM,15.8,12.2,86,30.09,10.0,NNW,13.8,19.6,N/A,,Overcast,330,2012-12-31 09:15:00
3:35 AM,15.8,12.2,86,30.09,7.0,NNW,12.7,19.6,N/A,,Freezing Rain,340,2012-12-31 09:35:00
3:55 AM,17.6,14.0,86,30.09,6.0,NNW,11.5,19.6,N/A,,Freezing Rain,340,2012-12-31 09:55:00
4:15 AM,17.6,14.0,86,30.10,8.0,NNW,15.0,-,N/A,,Freezing Rain,330,2012-12-31 10:15:00
4:35 AM,17.6,14.0,86,30.11,8.0,NNW,11.5,23.0,N/A,,Freezing Rain,340,2012-12-31 10:35:00
4:55 AM,17.6,14.0,86,30.11,5.0,NNW,18.4,-,N/A,,Freezing Rain,330,2012-12-31 10:55:00
5:15 AM,15.8,10.4,79,30.12,10.0,NNW,19.6,25.3,N/A,,Scattered Clouds,330,2012-12-31 11:15:00
5:35 AM,15.8,10.4,79,30.12,10.0,NNW,16.1,23.0,N/A,,Partly Cloudy,330,2012-12-31 11:35:00
5:55 AM,15.8,10.4,79,30.13,10.0,NNW,16.1,23.0,N/A,,Mostly Cloudy,340,2012-12-31 11:55:00
6:15 AM,14.0,10.4,86,30.13,10.0,North,9.2,16.1,N/A,,Mostly Cloudy,350,2012-12-31 12:15:00
6:35 AM,14.0,10.4,86,30.13,10.0,NNW,11.5,-,N/A,,Partly Cloudy,340,2012-12-31 12:35:00
6:55 AM,14.0,10.4,86,30.13,10.0,NNW,13.8,-,N/A,,Clear,340,2012-12-31 12:55:00
7:15 AM,15.8,8.6,73,30.12,10.0,NNW,13.8,-,N/A,,Clear,340,2012-12-31 13:15:00
7:35 AM,14.0,8.6,79,30.14,10.0,NNW,13.8,-,N/A,,Clear,340,2012-12-31 13:35:00
7:55 AM,14.0,8.6,79,30.13,10.0,NNW,12.7,-,N/A,,Clear,340,2012-12-31 13:55:00
8:15 AM,14.0,8.6,79,30.13,10.0,NNW,12.7,-,N/A,,Clear,340,2012-12-31 14:15:00
8:35 AM,14.0,8.6,79,30.14,10.0,NNW,10.4,-,N/A,,Clear,340,2012-12-31 14:35:00
8:55 AM,14.0,8.6,79,30.15,10.0,NNW,12.7,19.6,N/A,,Clear,340,2012-12-31 14:55:00
9:15 AM,14.0,8.6,79,30.16,10.0,NNW,12.7,-,N/A,,Clear,340,2012-12-31 15:15:00
9:35 AM,14.0,8.6,79,30.16,10.0,NNW,10.4,-,N/A,,Clear,330,2012-12-31 15:35:00
9:55 AM,14.0,8.6,79,30.17,10.0,NNW,13.8,-,N/A,,Clear,340,2012-12-31 15:55:00
10:15 AM,14.0,6.8,73,30.17,10.0,NNW,15.0,20.7,N/A,,Clear,340,2012-12-31 16:15:00
10:35 AM,14.0,6.8,73,30.17,10.0,NNW,13.8,21.9,N/A,,Clear,340,2012-12-31 16:35:00
10:55 AM,14.0,6.8,73,30.17,10.0,NNW,12.7,-,N/A,,Clear,340,2012-12-31 16:55:00
11:15 AM,15.8,6.8,68,30.17,10.0,North,13.8,-,N/A,,Partly Cloudy,350,2012-12-31 17:15:00
11:35 AM,14.0,6.8,73,30.17,10.0,NNW,12.7,-,N/A,,Mostly Cloudy,340,2012-12-31 17:35:00
11:55 AM,14.0,6.8,73,30.18,10.0,NNW,9.2,16.1,N/A,,Mostly Cloudy,340,2012-12-31 17:55:00
12:15 PM,14.0,6.8,73,30.17,10.0,NNW,11.5,-,N/A,,Mostly Cloudy,340,2012-12-31 18:15:00
12:35 PM,15.8,8.6,73,30.16,10.0,NNW,12.7,-,N/A,,Overcast,340,2012-12-31 18:35:00
12:55 PM,15.8,8.6,73,30.16,10.0,NNW,12.7,-,N/A,Snow,Light Snow,340,2012-12-31 18:55:00
1:15 PM,15.8,8.6,73,30.15,8.0,NNW,10.4,-,N/A,Rain,Freezing Rain,340,2012-12-31 19:15:00
1:35 PM,14.0,6.8,73,30.16,9.0,NNW,12.7,-,N/A,,Overcast,330,2012-12-31 19:35:00
1:55 PM,15.8,6.8,68,30.15,10.0,NNW,16.1,-,N/A,,Mostly Cloudy,330,2012-12-31 19:55:00
2:15 PM,14.0,3.2,62,30.16,10.0,NNW,12.7,-,N/A,,Partly Cloudy,340,2012-12-31 20:15:00
2:35 PM,14.0,5.0,67,30.16,10.0,NNW,12.7,-,N/A,,Clear,330,2012-12-31 20:35:00
2:55 PM,14.0,3.2,62,30.16,10.0,NNW,17.3,-,N/A,,Clear,330,2012-12-31 20:55:00
3:15 PM,14.0,3.2,62,30.16,10.0,NNW,13.8,19.6,N/A,,Clear,340,2012-12-31 21:15:00
3:35 PM,12.2,3.2,67,30.15,10.0,NNW,12.7,-,N/A,,Clear,340,2012-12-31 21:35:00
3:55 PM,12.2,3.2,67,30.14,10.0,NNW,12.7,-,N/A,,Clear,340,2012-12-31 21:55:00
4:35 PM,12.2,3.2,67,30.15,10.0,NNW,15.0,-,N/A,,Clear,340,2012-12-31 22:35:00
4:55 PM,12.2,3.2,67,30.17,10.0,NNW,12.7,-,N/A,,Clear,330,2012-12-31 22:55:00
5:15 PM,10.4,1.4,67,30.16,10.0,NNW,10.4,17.3,N/A,,Clear,340,2012-12-31 23:15:00
5:35 PM,10.4,1.4,67,30.18,10.0,NNW,9.2,-,N/A,,Clear,330,2012-12-31 23:35:00
5:55 PM,8.6,1.4,73,30.18,10.0,NNW,8.1,-,N/A,,Clear,330,2012-12-31 23:55:00
6:15 PM,8.6,1.4,73,30.18,10.0,NNW,9.2,-,N/A,,Clear,330,2013-01-01 00:15:00
6:35 PM,8.6,-0.4,67,30.18,10.0,NNW,10.4,-,N/A,,Clear,330,2013-01-01 00:35:00
6:55 PM,6.8,-0.4,72,30.18,10.0,NNW,9.2,-,N/A,,Clear,340,2013-01-01 00:55:00
7:15 PM,6.8,-0.4,72,30.19,10.0,NNW,10.4,-,N/A,,Clear,340,2013-01-01 01:15:00
7:35 PM,6.8,-0.4,72,30.19,10.0,NNW,8.1,-,N/A,,Clear,340,2013-01-01 01:35:00
7:55 PM,6.8,-0.4,72,30.20,10.0,NNW,9.2,-,N/A,,Clear,340,2013-01-01 01:55:00
8:15 PM,5.0,-2.2,72,30.20,10.0,NNW,9.2,-,N/A,,Clear,340,2013-01-01 02:15:00
8:35 PM,5.0,-2.2,72,30.21,10.0,NNW,8.1,-,N/A,,Clear,330,2013-01-01 02:35:00
9:15 PM,3.2,-4.0,72,30.21,10.0,NNW,6.9,-,N/A,,Clear,330,2013-01-01 03:15:00
9:35 PM,1.4,-4.0,78,30.21,10.0,NNW,8.1,-,N/A,,Clear,340,2013-01-01 03:35:00
9:55 PM,1.4,-5.8,72,30.22,10.0,NNW,8.1,-,N/A,,Clear,340,2013-01-01 03:55:00
10:15 PM,1.4,-5.8,72,30.22,10.0,North,6.9,-,N/A,,Clear,350,2013-01-01 04:15:00
10:35 PM,1.4,-5.8,72,30.23,10.0,NNW,5.8,-,N/A,,Clear,340,2013-01-01 04:35:00
10:55 PM,1.4,-5.8,72,30.23,10.0,NNW,4.6,-,N/A,,Clear,340,2013-01-01 04:55:00
11:15 PM,-0.4,-5.8,78,30.24,10.0,NNW,6.9,-,N/A,,Clear,330,2013-01-01 05:15:00
11:35 PM,-0.4,-7.6,72,30.24,10.0,NNW,8.1,-,N/A,,Clear,340,2013-01-01 05:35:00